Time,TemperatureF,DewpointF,PressureIn,WindDirection,WindDirectionDegrees,WindSpeedMPH,WindSpeedGustMPH,Humidity,HourlyPrecipIn,Conditions,Clouds,dailyrainin,SoftwareType,DateUTC
2013-04-25 00:01:00,50.5,46.6,-100.00,WNW,299,6.0,14.0,86,0.00,,,0.00,meteohub,2013-04-25 04:01:00,
2013-04-25 00:02:00,51.1,47.1,-100.00,WSW,250,4.0,14.0,86,0.00,,,0.00,meteohub,2013-04-25 04:02:00,
2013-04-25 00:04:00,50.5,46.6,-100.00,West,262,2.0,11.0,86,0.00,,,0.00,meteohub,2013-04-25 04:04:00,
2013-04-25 00:05:00,50.5,46.8,-100.00,NW,313,2.0,11.0,87,0.00,,,0.00,meteohub,2013-04-25 04:05:00,
2013-04-25 00:10:00,51.1,47.3,-100.00,West,272,7.0,11.0,87,0.00,,,0.00,meteohub,2013-04-25 04:10:00,
2013-04-25 00:15:00,51.1,47.3,-100.00,West,265,2.0,11.0,87,0.00,,,0.00,meteohub,2013-04-25 04:15:00,
2013-04-25 00:20:00,51.1,47.3,-100.00,WNW,289,3.0,11.0,87,0.00,,,0.00,meteohub,2013-04-25 04:20:00,
2013-04-25 00:25:00,50.7,47.3,-100.00,South,177,0.0,11.0,88,0.00,,,0.00,meteohub,2013-04-25 04:25:00,
2013-04-25 00:30:00,50.7,47.3,-100.00,South,185,5.0,11.0,88,0.00,,,0.00,meteohub,2013-04-25 04:30:00,
2013-04-25 00:35:00,50.2,46.8,-100.00,SSW,195,2.0,10.0,88,0.00,,,0.00,meteohub,2013-04-25 04:35:00,
2013-04-25 00:40:00,51.3,48.2,-100.00,South,180,3.0,10.0,89,0.00,,,0.00,meteohub,2013-04-25 04:40:00,
2013-04-25 00:45:00,52.0,48.9,-100.00,ENE,74,0.0,14.0,89,0.00,,,0.00,meteohub,2013-04-25 04:45:00,
2013-04-25 00:50:00,51.1,48.0,-100.00,WNW,284,5.0,14.0,89,0.00,,,0.00,meteohub,2013-04-25 04:50:00,
2013-04-25 00:55:00,50.2,47.1,-100.00,West,264,2.0,14.0,89,0.00,,,0.00,meteohub,2013-04-25 04:55:00,
2013-04-25 01:01:00,51.1,48.2,-100.00,WNW,291,0.0,9.0,90,0.00,,,0.00,meteohub,2013-04-25 05:01:00,
2013-04-25 01:06:00,51.3,48.4,-100.00,SW,227,2.0,9.0,90,0.00,,,0.00,meteohub,2013-04-25 05:06:00,
2013-04-25 01:11:00,51.1,48.2,-100.00,WSW,239,5.0,9.0,90,0.00,,,0.00,meteohub,2013-04-25 05:11:00,
2013-04-25 01:16:00,50.7,47.8,-100.00,WSW,255,3.0,10.0,90,0.00,,,0.00,meteohub,2013-04-25 05:16:00,
2013-04-25 01:21:00,52.0,49.1,-100.00,West,268,5.0,12.0,90,0.00,,,0.00,meteohub,2013-04-25 05:21:00,
2013-04-25 01:26:00,52.0,49.5,-100.00,WNW,293,3.0,12.0,91,0.00,,,0.00,meteohub,2013-04-25 05:26:00,
2013-04-25 01:31:00,51.3,48.7,-100.00,West,274,6.0,12.0,91,0.00,,,0.00,meteohub,2013-04-25 05:31:00,
2013-04-25 01:36:00,52.0,49.5,-100.00,WNW,285,4.0,10.0,91,0.00,,,0.00,meteohub,2013-04-25 05:36:00,
2013-04-25 01:41:00,52.3,49.8,-100.00,West,268,6.0,10.0,91,0.00,,,0.00,meteohub,2013-04-25 05:41:00,
2013-04-25 01:46:00,52.3,49.8,-100.00,SW,230,5.0,14.0,91,0.00,,,0.00,meteohub,2013-04-25 05:46:00,
2013-04-25 01:51:00,51.3,49.1,-100.00,West,264,0.0,14.0,92,0.00,,,0.00,meteohub,2013-04-25 05:51:00,
2013-04-25 01:56:00,51.1,48.9,-100.00,SSE,160,0.0,14.0,92,0.00,,,0.00,meteohub,2013-04-25 05:56:00,
2013-04-25 02:01:00,52.2,49.8,-100.00,NW,317,4.0,12.0,92,0.00,,,0.00,meteohub,2013-04-25 06:01:00,
2013-04-25 02:06:00,51.6,49.5,-100.00,WNW,296,3.0,11.0,92,0.00,,,0.00,meteohub,2013-04-25 06:06:00,
2013-04-25 02:11:00,52.9,50.5,-100.00,WNW,288,0.0,11.0,92,0.00,,,0.00,meteohub,2013-04-25 06:11:00,
2013-04-25 02:16:00,52.9,50.5,-100.00,West,271,2.0,14.0,92,0.00,,,0.00,meteohub,2013-04-25 06:16:00,
2013-04-25 02:21:00,52.3,50.0,-100.00,WNW,288,6.0,14.0,92,0.00,,,0.00,meteohub,2013-04-25 06:21:00,
2013-04-25 02:26:00,52.5,50.2,-100.00,West,262,3.0,14.0,92,0.00,,,0.00,meteohub,2013-04-25 06:26:00,
2013-04-25 02:31:00,52.5,50.2,-100.00,West,264,5.0,14.0,92,0.00,,,0.00,meteohub,2013-04-25 06:31:00,
2013-04-25 02:37:00,52.5,50.2,-100.00,West,268,5.0,14.0,92,0.00,,,0.00,meteohub,2013-04-25 06:37:00,
2013-04-25 02:42:00,53.4,51.1,-100.00,WSW,253,1.0,9.0,92,0.00,,,0.00,meteohub,2013-04-25 06:42:00,
2013-04-25 02:47:00,52.5,50.2,-100.00,West,274,9.0,9.0,92,0.00,,,0.00,meteohub,2013-04-25 06:47:00,
2013-04-25 02:52:00,52.3,50.0,-100.00,SSW,194,6.0,10.0,92,0.00,,,0.00,meteohub,2013-04-25 06:52:00,
2013-04-25 02:57:00,53.1,50.7,-100.00,WNW,292,2.0,10.0,92,0.00,,,0.00,meteohub,2013-04-25 06:57:00,
2013-04-25 03:02:00,52.9,50.5,-100.00,WNW,292,4.0,10.0,92,0.00,,,0.00,meteohub,2013-04-25 07:02:00,
2013-04-25 03:07:00,52.9,50.5,-100.00,West,274,2.0,9.0,92,0.00,,,0.00,meteohub,2013-04-25 07:07:00,
2013-04-25 03:12:00,52.3,50.0,-100.00,WSW,237,0.0,9.0,92,0.00,,,0.00,meteohub,2013-04-25 07:12:00,
2013-04-25 03:17:00,53.1,50.7,-100.00,WNW,289,0.0,8.0,92,0.00,,,0.00,meteohub,2013-04-25 07:17:00,
2013-04-25 03:22:00,52.9,50.5,-100.00,WSW,241,3.0,8.0,92,0.00,,,0.00,meteohub,2013-04-25 07:22:00,
2013-04-25 03:27:00,54.5,52.2,-100.00,West,262,2.0,9.0,92,0.00,,,0.00,meteohub,2013-04-25 07:27:00,
2013-04-25 03:32:00,54.5,52.2,-100.00,WSW,239,0.0,9.0,92,0.00,,,0.00,meteohub,2013-04-25 07:32:00,
2013-04-25 03:37:00,53.6,51.6,-100.00,WSW,239,0.0,9.0,93,0.00,,,0.00,meteohub,2013-04-25 07:37:00,
2013-04-25 03:42:00,53.4,51.4,-100.00,WNW,284,0.0,9.0,93,0.00,,,0.01,meteohub,2013-04-25 07:42:00,
2013-04-25 03:47:00,53.1,51.1,-100.00,WNW,285,0.0,9.0,93,0.01,,,0.01,meteohub,2013-04-25 07:47:00,
2013-04-25 03:52:00,52.9,50.9,-100.00,WNW,295,0.0,9.0,93,0.01,,,0.01,meteohub,2013-04-25 07:52:00,
2013-04-25 03:57:00,53.1,51.1,-100.00,NW,317,0.0,4.0,93,0.02,,,0.02,meteohub,2013-04-25 07:57:00,
2013-04-25 04:02:00,52.9,51.3,-100.00,NW,317,0.0,4.0,94,0.02,,,0.02,meteohub,2013-04-25 08:02:00,
2013-04-25 04:07:00,53.4,51.8,-100.00,WSW,254,0.0,3.0,94,0.02,,,0.02,meteohub,2013-04-25 08:07:00,
2013-04-25 04:12:00,53.6,52.0,-100.00,WSW,254,0.0,3.0,94,0.02,,,0.03,meteohub,2013-04-25 08:12:00,
2013-04-25 04:17:00,53.4,52.0,-100.00,WSW,254,0.0,3.0,95,0.03,,,0.03,meteohub,2013-04-25 08:17:00,
2013-04-25 04:22:00,53.1,51.6,-100.00,WNW,299,1.0,3.0,95,0.03,,,0.03,meteohub,2013-04-25 08:22:00,
2013-04-25 04:27:00,53.4,52.0,-100.00,NW,315,6.0,6.0,95,0.03,,,0.03,meteohub,2013-04-25 08:27:00,
2013-04-25 04:32:00,53.1,51.6,-100.00,NW,326,6.0,12.0,95,0.03,,,0.03,meteohub,2013-04-25 08:32:00,
2013-04-25 04:37:00,52.5,51.1,-100.00,NNW,331,6.0,12.0,95,0.03,,,0.03,meteohub,2013-04-25 08:37:00,
2013-04-25 04:42:00,52.0,50.4,-100.00,NW,305,3.0,12.0,94,0.03,,,0.03,meteohub,2013-04-25 08:42:00,
2013-04-25 04:47:00,51.1,49.1,-100.00,NW,326,5.0,10.0,93,0.02,,,0.03,meteohub,2013-04-25 08:47:00,
2013-04-25 04:52:00,52.2,49.8,-100.00,NNW,327,6.0,10.0,92,0.02,,,0.03,meteohub,2013-04-25 08:52:00,
2013-04-25 04:57:00,52.2,49.6,-100.00,NW,309,7.0,10.0,91,0.02,,,0.03,meteohub,2013-04-25 08:57:00,
2013-04-25 05:02:00,51.3,48.7,-100.00,North,351,8.0,15.0,91,0.01,,,0.03,meteohub,2013-04-25 09:02:00,
2013-04-25 05:07:00,50.2,45.5,-100.00,North,354,9.0,15.0,84,0.01,,,0.03,meteohub,2013-04-25 09:07:00,
2013-04-25 05:12:00,48.9,43.7,-100.00,NW,319,9.0,23.0,82,0.00,,,0.03,meteohub,2013-04-25 09:12:00,
2013-04-25 05:17:00,48.9,44.2,-100.00,North,358,11.0,23.0,84,0.00,,,0.03,meteohub,2013-04-25 09:17:00,
2013-04-25 05:22:00,48.6,43.3,-100.00,NNW,329,7.0,18.0,82,0.00,,,0.03,meteohub,2013-04-25 09:22:00,
2013-04-25 05:27:00,48.4,43.5,-100.00,NNW,334,8.0,18.0,83,0.00,,,0.03,meteohub,2013-04-25 09:27:00,
2013-04-25 05:32:00,48.0,43.3,-100.00,NW,324,9.0,15.0,84,0.00,,,0.03,meteohub,2013-04-25 09:32:00,
2013-04-25 05:38:00,48.4,44.1,-100.00,WNW,284,9.0,15.0,85,0.00,,,0.03,meteohub,2013-04-25 09:38:00,
2013-04-25 05:43:00,48.6,43.7,-100.00,NNW,327,7.0,14.0,83,0.00,,,0.03,meteohub,2013-04-25 09:43:00,
2013-04-25 05:48:00,46.8,41.2,-100.00,North,0,6.0,14.0,81,0.00,,,0.03,meteohub,2013-04-25 09:48:00,
2013-04-25 05:53:00,47.1,41.4,-100.00,NNE,15,4.0,11.0,80,0.00,,,0.03,meteohub,2013-04-25 09:53:00,
2013-04-25 05:58:00,46.8,41.0,-100.00,NNE,14,11.0,11.0,80,0.00,,,0.03,meteohub,2013-04-25 09:58:00,
2013-04-25 06:03:00,46.2,39.7,-100.00,NNW,340,7.0,13.0,78,0.00,,,0.03,meteohub,2013-04-25 10:03:00,
2013-04-25 06:08:00,45.9,39.4,-100.00,WNW,298,5.0,13.0,78,0.00,,,0.03,meteohub,2013-04-25 10:08:00,
2013-04-25 06:13:00,46.2,39.4,-100.00,NNW,337,5.0,13.0,77,0.00,,,0.03,meteohub,2013-04-25 10:13:00,
2013-04-25 06:18:00,45.9,39.4,-100.00,NNW,336,5.0,13.0,78,0.00,,,0.03,meteohub,2013-04-25 10:18:00,
2013-04-25 06:23:00,45.3,37.9,-100.00,NW,320,5.0,10.0,75,0.00,,,0.03,meteohub,2013-04-25 10:23:00,
2013-04-25 06:28:00,45.3,37.9,-100.00,NNW,337,6.0,10.0,75,0.00,,,0.03,meteohub,2013-04-25 10:28:00,
2013-04-25 06:33:00,45.7,37.6,-100.00,NNW,327,10.0,12.0,73,0.00,,,0.03,meteohub,2013-04-25 10:33:00,
2013-04-25 06:38:00,46.2,37.8,-100.00,WNW,299,11.0,17.0,72,0.00,,,0.03,meteohub,2013-04-25 10:38:00,
2013-04-25 06:43:00,45.0,36.5,-100.00,WNW,289,10.0,17.0,72,0.00,,,0.03,meteohub,2013-04-25 10:43:00,
2013-04-25 06:48:00,46.0,36.5,-100.00,NNW,334,9.0,17.0,69,0.00,,,0.03,meteohub,2013-04-25 10:48:00,
2013-04-25 06:53:00,46.2,36.7,-100.00,North,1,5.0,15.0,69,0.00,,,0.03,meteohub,2013-04-25 10:53:00,
2013-04-25 06:58:00,45.0,35.4,-100.00,NW,317,6.0,15.0,69,0.00,,,0.03,meteohub,2013-04-25 10:58:00,
2013-04-25 07:04:00,45.3,35.4,-100.00,NNW,336,6.0,16.0,68,0.00,,,0.03,meteohub,2013-04-25 11:04:00,
2013-04-25 07:09:00,44.2,34.3,-100.00,NNW,343,7.0,16.0,68,0.00,,,0.03,meteohub,2013-04-25 11:09:00,
2013-04-25 07:14:00,45.0,35.1,-100.00,NNW,327,5.0,16.0,68,0.00,,,0.03,meteohub,2013-04-25 11:14:00,
2013-04-25 07:19:00,44.8,34.5,-100.00,NNE,25,5.0,10.0,67,0.00,,,0.03,meteohub,2013-04-25 11:19:00,
2013-04-25 07:24:00,45.0,34.3,-100.00,NW,323,9.0,10.0,66,0.00,,,0.03,meteohub,2013-04-25 11:24:00,
2013-04-25 07:29:00,44.2,34.3,-100.00,NE,36,3.0,15.0,68,0.00,,,0.03,meteohub,2013-04-25 11:29:00,
2013-04-25 07:34:00,43.9,33.6,-100.00,NW,315,5.0,15.0,67,0.00,,,0.03,meteohub,2013-04-25 11:34:00,
2013-04-25 07:39:00,44.4,33.8,-100.00,NW,310,6.0,15.0,66,0.00,,,0.03,meteohub,2013-04-25 11:39:00,
2013-04-25 07:44:00,45.0,34.7,-100.00,WNW,303,7.0,12.0,67,0.00,,,0.03,meteohub,2013-04-25 11:44:00,
2013-04-25 07:49:00,45.0,34.3,-100.00,North,7,7.0,12.0,66,0.00,,,0.03,meteohub,2013-04-25 11:49:00,
2013-04-25 07:54:00,45.3,34.7,-100.00,NNW,344,6.0,11.0,66,0.00,,,0.03,meteohub,2013-04-25 11:54:00,
2013-04-25 07:59:00,44.8,34.5,-100.00,NW,305,6.0,11.0,67,0.00,,,0.03,meteohub,2013-04-25 11:59:00,
2013-04-25 08:04:00,45.3,34.7,-100.00,NW,306,6.0,11.0,66,0.00,,,0.03,meteohub,2013-04-25 12:04:00,
2013-04-25 08:09:00,44.4,33.8,-100.00,NNW,340,5.0,11.0,66,0.00,,,0.03,meteohub,2013-04-25 12:09:00,
2013-04-25 08:14:00,43.5,32.5,-100.00,West,275,6.0,14.0,65,0.00,,,0.03,meteohub,2013-04-25 12:14:00,
2013-04-25 08:19:00,44.1,33.8,-100.00,NW,326,3.0,14.0,67,0.00,,,0.03,meteohub,2013-04-25 12:19:00,
2013-04-25 08:24:00,44.4,33.4,-100.00,NW,312,6.0,13.0,65,0.00,,,0.03,meteohub,2013-04-25 12:24:00,
2013-04-25 08:30:00,44.2,33.6,-100.00,North,357,4.0,13.0,66,0.00,,,0.03,meteohub,2013-04-25 12:30:00,
2013-04-25 08:35:00,44.2,32.9,-100.00,North,0,9.0,9.0,64,0.00,,,0.03,meteohub,2013-04-25 12:35:00,
2013-04-25 08:40:00,44.4,33.4,-100.00,North,358,6.0,12.0,65,0.00,,,0.03,meteohub,2013-04-25 12:40:00,
2013-04-25 08:45:00,46.2,35.1,-100.00,WNW,302,7.0,12.0,65,0.00,,,0.03,meteohub,2013-04-25 12:45:00,
2013-04-25 08:50:00,45.7,34.5,-100.00,NNW,348,5.0,12.0,65,0.00,,,0.03,meteohub,2013-04-25 12:50:00,
2013-04-25 08:55:00,46.0,34.5,-100.00,NNW,338,6.0,12.0,64,0.00,,,0.03,meteohub,2013-04-25 12:55:00,
2013-04-25 09:00:00,46.6,34.3,-100.00,North,358,8.0,12.0,62,0.00,,,0.03,meteohub,2013-04-25 13:00:00,
2013-04-25 09:05:00,46.0,33.8,-100.00,NW,306,9.0,15.0,62,0.00,,,0.03,meteohub,2013-04-25 13:05:00,
2013-04-25 09:10:00,46.8,34.0,-100.00,NW,326,4.0,15.0,61,0.00,,,0.03,meteohub,2013-04-25 13:10:00,
2013-04-25 09:15:00,46.6,33.8,-100.00,NW,309,6.0,15.0,61,0.00,,,0.03,meteohub,2013-04-25 13:15:00,
2013-04-25 09:20:00,47.1,34.0,-100.00,WNW,302,5.0,11.0,60,0.00,,,0.03,meteohub,2013-04-25 13:20:00,
2013-04-25 09:25:00,46.6,33.8,-100.00,North,358,4.0,10.0,61,0.00,,,0.03,meteohub,2013-04-25 13:25:00,
2013-04-25 09:30:00,47.1,31.3,-100.00,North,351,8.0,11.0,54,0.00,,,0.03,meteohub,2013-04-25 13:30:00,
2013-04-25 09:35:00,47.7,32.7,-100.00,NNE,16,7.0,15.0,56,0.00,,,0.03,meteohub,2013-04-25 13:35:00,
2013-04-25 09:40:00,47.7,31.3,-100.00,NNW,347,6.0,15.0,53,0.00,,,0.03,meteohub,2013-04-25 13:40:00,
2013-04-25 09:45:00,48.4,31.6,-100.00,North,358,7.0,17.0,52,0.00,,,0.03,meteohub,2013-04-25 13:45:00,
2013-04-25 09:50:00,48.9,32.5,-100.00,NNW,347,7.0,17.0,53,0.00,,,0.03,meteohub,2013-04-25 13:50:00,
2013-04-25 09:55:00,48.9,31.6,-100.00,NNW,343,5.0,15.0,51,0.00,,,0.03,meteohub,2013-04-25 13:55:00,
2013-04-25 10:00:00,49.8,32.9,-100.00,NW,313,5.0,17.0,52,0.00,,,0.03,meteohub,2013-04-25 14:00:00,
2013-04-25 10:06:00,49.8,32.9,-100.00,West,275,14.0,17.0,52,0.00,,,0.03,meteohub,2013-04-25 14:06:00,
2013-04-25 10:11:00,49.5,32.0,-100.00,North,355,13.0,17.0,51,0.00,,,0.03,meteohub,2013-04-25 14:11:00,
2013-04-25 10:16:00,49.6,31.8,-100.00,NW,322,4.0,17.0,50,0.00,,,0.03,meteohub,2013-04-25 14:16:00,
2013-04-25 10:21:00,50.0,32.5,-100.00,NNW,348,4.0,17.0,51,0.00,,,0.03,meteohub,2013-04-25 14:21:00,
2013-04-25 10:26:00,50.2,31.8,-100.00,NW,317,4.0,15.0,49,0.00,,,0.03,meteohub,2013-04-25 14:26:00,
2013-04-25 10:31:00,50.2,31.8,-100.00,NW,322,8.0,14.0,49,0.00,,,0.03,meteohub,2013-04-25 14:31:00,
2013-04-25 10:36:00,48.6,30.7,-100.00,NW,320,9.0,14.0,50,0.00,,,0.03,meteohub,2013-04-25 14:36:00,
2013-04-25 10:41:00,50.0,31.1,-100.00,NW,316,10.0,14.0,48,0.00,,,0.03,meteohub,2013-04-25 14:41:00,
2013-04-25 10:46:00,50.7,33.3,-100.00,North,350,6.0,16.0,51,0.00,,,0.03,meteohub,2013-04-25 14:46:00,
2013-04-25 10:51:00,49.6,31.3,-100.00,NNW,336,8.0,16.0,49,0.00,,,0.03,meteohub,2013-04-25 14:51:00,
2013-04-25 10:56:00,50.5,31.6,-100.00,NNW,337,5.0,16.0,48,0.00,,,0.03,meteohub,2013-04-25 14:56:00,
2013-04-25 11:01:00,50.5,32.0,-100.00,WNW,296,9.0,15.0,49,0.00,,,0.03,meteohub,2013-04-25 15:01:00,
2013-04-25 11:06:00,50.7,31.8,-100.00,NW,323,5.0,15.0,48,0.00,,,0.03,meteohub,2013-04-25 15:06:00,
2013-04-25 11:11:00,51.3,32.2,-100.00,NW,322,6.0,15.0,48,0.00,,,0.03,meteohub,2013-04-25 15:11:00,
2013-04-25 11:16:00,51.6,30.9,-100.00,NW,310,9.0,16.0,45,0.00,,,0.03,meteohub,2013-04-25 15:16:00,
2013-04-25 11:22:00,51.1,31.1,-100.00,WNW,298,8.0,16.0,46,0.00,,,0.03,meteohub,2013-04-25 15:22:00,
2013-04-25 11:27:00,52.0,31.3,-100.00,North,358,6.0,16.0,45,0.00,,,0.03,meteohub,2013-04-25 15:27:00,
2013-04-25 11:32:00,51.3,30.0,-100.00,North,358,4.0,19.0,44,0.00,,,0.03,meteohub,2013-04-25 15:32:00,
2013-04-25 11:37:00,52.9,31.6,-100.00,NNW,336,7.0,19.0,44,0.00,,,0.03,meteohub,2013-04-25 15:37:00,
2013-04-25 11:42:00,52.3,31.1,-100.00,NNW,337,4.0,19.0,44,0.00,,,0.03,meteohub,2013-04-25 15:42:00,
2013-04-25 11:47:00,53.4,32.0,-100.00,NNE,19,2.0,13.0,44,0.00,,,0.03,meteohub,2013-04-25 15:47:00,
2013-04-25 11:52:00,52.2,30.4,-100.00,NNW,345,4.0,13.0,43,0.00,,,0.03,meteohub,2013-04-25 15:52:00,
2013-04-25 11:57:00,54.1,32.7,-100.00,WNW,298,5.0,13.0,44,0.00,,,0.03,meteohub,2013-04-25 15:57:00,
2013-04-25 12:02:00,54.1,31.5,-100.00,North,352,6.0,9.0,42,0.00,,,0.03,meteohub,2013-04-25 16:02:00,
2013-04-25 12:07:00,54.0,31.5,-100.00,WNW,286,12.0,14.0,42,0.00,,,0.03,meteohub,2013-04-25 16:07:00,
2013-04-25 12:12:00,54.1,31.5,-100.00,NNW,341,6.0,14.0,42,0.00,,,0.03,meteohub,2013-04-25 16:12:00,
2013-04-25 12:17:00,54.1,30.9,-100.00,NW,315,4.0,14.0,41,0.00,,,0.03,meteohub,2013-04-25 16:17:00,
2013-04-25 12:22:00,54.5,31.8,-100.00,NW,309,10.0,14.0,42,0.00,,,0.03,meteohub,2013-04-25 16:22:00,
2013-04-25 12:27:00,53.6,29.8,-100.00,NNE,23,1.0,14.0,40,0.00,,,0.03,meteohub,2013-04-25 16:27:00,
2013-04-25 12:32:00,54.0,31.5,-100.00,WNW,288,3.0,14.0,42,0.00,,,0.03,meteohub,2013-04-25 16:32:00,
2013-04-25 12:37:00,54.7,32.5,-100.00,NW,309,10.0,12.0,43,0.00,,,0.03,meteohub,2013-04-25 16:37:00,
2013-04-25 12:42:00,56.7,33.3,-100.00,NNW,344,2.0,12.0,41,0.00,,,0.03,meteohub,2013-04-25 16:42:00,
2013-04-25 12:47:00,55.6,32.2,-100.00,NW,320,4.0,13.0,41,0.00,,,0.03,meteohub,2013-04-25 16:47:00,
2013-04-25 12:52:00,55.8,29.8,-100.00,NW,317,6.0,13.0,37,0.00,,,0.03,meteohub,2013-04-25 16:52:00,
2013-04-25 12:57:00,55.2,28.8,-100.00,WNW,288,4.0,14.0,36,0.00,,,0.03,meteohub,2013-04-25 16:57:00,
2013-04-25 13:02:00,57.2,31.1,-100.00,NE,46,6.0,14.0,37,0.00,,,0.03,meteohub,2013-04-25 17:02:00,
2013-04-25 13:07:00,57.4,32.0,-100.00,WNW,300,0.0,14.0,38,0.00,,,0.03,meteohub,2013-04-25 17:07:00,
2013-04-25 13:12:00,57.4,32.0,-100.00,NNW,347,5.0,14.0,38,0.00,,,0.03,meteohub,2013-04-25 17:12:00,
2013-04-25 13:17:00,57.9,31.1,-100.00,NW,323,2.0,10.0,36,0.00,,,0.03,meteohub,2013-04-25 17:17:00,
2013-04-25 13:22:00,57.2,31.1,-100.00,West,272,6.0,10.0,37,0.00,,,0.03,meteohub,2013-04-25 17:22:00,
2013-04-25 13:27:00,57.4,30.0,-100.00,North,350,6.0,10.0,35,0.00,,,0.03,meteohub,2013-04-25 17:27:00,
2013-04-25 13:32:00,58.3,31.5,-100.00,NW,323,8.0,13.0,36,0.00,,,0.03,meteohub,2013-04-25 17:32:00,
2013-04-25 13:37:00,58.5,29.5,-100.00,WNW,286,4.0,13.0,33,0.00,,,0.03,meteohub,2013-04-25 17:37:00,
2013-04-25 13:42:00,57.7,28.8,-100.00,NW,309,7.0,13.0,33,0.00,,,0.03,meteohub,2013-04-25 17:42:00,
2013-04-25 13:47:00,57.9,28.9,-100.00,North,350,9.0,13.0,33,0.00,,,0.03,meteohub,2013-04-25 17:47:00,
2013-04-25 13:52:00,58.5,28.8,-100.00,NNE,15,4.0,13.0,32,0.00,,,0.03,meteohub,2013-04-25 17:52:00,
2013-04-25 13:57:00,57.9,28.2,-100.00,WNW,298,4.0,11.0,32,0.00,,,0.03,meteohub,2013-04-25 17:57:00,
2013-04-25 14:02:00,58.5,27.1,-100.00,WNW,298,3.0,12.0,30,0.00,,,0.03,meteohub,2013-04-25 18:02:00,
2013-04-25 14:07:00,59.9,30.0,-100.00,NNW,327,4.0,12.0,32,0.00,,,0.03,meteohub,2013-04-25 18:07:00,
2013-04-25 14:12:00,60.4,29.7,-100.00,WNW,298,4.0,12.0,31,0.00,,,0.03,meteohub,2013-04-25 18:12:00,
2013-04-25 14:17:00,60.6,28.9,-100.00,NNW,336,5.0,12.0,30,0.00,,,0.03,meteohub,2013-04-25 18:17:00,
2013-04-25 14:22:00,59.9,30.7,-100.00,WSW,247,3.0,13.0,33,0.00,,,0.03,meteohub,2013-04-25 18:22:00,
2013-04-25 14:27:00,60.4,29.7,-100.00,NNW,336,7.0,13.0,31,0.00,,,0.03,meteohub,2013-04-25 18:27:00,
2013-04-25 14:32:00,59.9,30.0,-100.00,NW,312,6.0,13.0,32,0.00,,,0.03,meteohub,2013-04-25 18:32:00,
2013-04-25 14:37:00,60.4,29.7,-100.00,NW,305,7.0,11.0,31,0.00,,,0.03,meteohub,2013-04-25 18:37:00,
2013-04-25 14:42:00,60.3,28.8,-100.00,NW,324,0.0,11.0,30,0.00,,,0.03,meteohub,2013-04-25 18:42:00,
2013-04-25 14:47:00,60.6,28.9,-100.00,WNW,292,11.0,11.0,30,0.00,,,0.03,meteohub,2013-04-25 18:47:00,
2013-04-25 14:52:00,59.5,28.9,-100.00,NW,307,4.0,16.0,31,0.00,,,0.03,meteohub,2013-04-25 18:52:00,
2013-04-25 14:57:00,60.6,28.2,-100.00,NW,316,8.0,16.0,29,0.00,,,0.03,meteohub,2013-04-25 18:57:00,
2013-04-25 15:02:00,60.6,28.2,-100.00,NW,310,7.0,16.0,29,0.00,,,0.03,meteohub,2013-04-25 19:02:00,
2013-04-25 15:07:00,60.3,27.9,-100.00,WNW,296,6.0,14.0,29,0.00,,,0.03,meteohub,2013-04-25 19:07:00,
2013-04-25 15:12:00,61.9,28.4,-100.00,WNW,293,1.0,14.0,28,0.00,,,0.03,meteohub,2013-04-25 19:12:00,
2013-04-25 15:17:00,61.0,29.3,-100.00,NW,307,6.0,14.0,30,0.00,,,0.03,meteohub,2013-04-25 19:17:00,
2013-04-25 15:22:00,61.5,28.9,-100.00,NW,322,4.0,9.0,29,0.00,,,0.03,meteohub,2013-04-25 19:22:00,
2013-04-25 15:27:00,61.9,28.4,-100.00,WNW,292,5.0,10.0,28,0.00,,,0.03,meteohub,2013-04-25 19:27:00,
2013-04-25 15:32:00,63.3,28.8,-100.00,NW,319,5.0,10.0,27,0.00,,,0.03,meteohub,2013-04-25 19:32:00,
2013-04-25 15:37:00,62.8,28.2,-100.00,NW,310,13.0,13.0,27,0.00,,,0.03,meteohub,2013-04-25 19:37:00,
2013-04-25 15:42:00,62.8,30.0,-100.00,North,5,4.0,12.0,29,0.00,,,0.03,meteohub,2013-04-25 19:42:00,
2013-04-25 15:47:00,60.3,27.0,-100.00,WNW,285,7.0,13.0,28,0.00,,,0.03,meteohub,2013-04-25 19:47:00,
2013-04-25 15:52:00,61.9,27.5,-100.00,NW,326,5.0,13.0,27,0.00,,,0.03,meteohub,2013-04-25 19:52:00,
2013-04-25 15:57:00,61.5,27.1,-100.00,North,1,3.0,12.0,27,0.00,,,0.03,meteohub,2013-04-25 19:57:00,
2013-04-25 16:02:00,61.0,26.8,-100.00,North,2,6.0,12.0,27,0.00,,,0.03,meteohub,2013-04-25 20:02:00,
2013-04-25 16:07:00,60.6,24.6,-100.00,NNW,345,5.0,13.0,25,0.00,,,0.03,meteohub,2013-04-25 20:07:00,
2013-04-25 16:12:00,61.0,26.8,-100.00,NW,320,4.0,13.0,27,0.00,,,0.03,meteohub,2013-04-25 20:12:00,
2013-04-25 16:17:00,60.6,22.6,-100.00,WNW,284,5.0,13.0,23,0.00,,,0.03,meteohub,2013-04-25 20:17:00,
2013-04-25 16:22:00,61.3,24.3,-100.00,North,351,3.0,13.0,24,0.00,,,0.03,meteohub,2013-04-25 20:22:00,
2013-04-25 16:27:00,61.9,25.7,-100.00,WNW,289,4.0,11.0,25,0.00,,,0.03,meteohub,2013-04-25 20:27:00,
2013-04-25 16:32:00,62.1,25.9,-100.00,NNW,331,3.0,11.0,25,0.00,,,0.03,meteohub,2013-04-25 20:32:00,
2013-04-25 16:37:00,61.9,27.5,-100.00,North,355,7.0,11.0,27,0.00,,,0.03,meteohub,2013-04-25 20:37:00,
2013-04-25 16:42:00,60.6,24.6,-100.00,NW,316,3.0,11.0,25,0.00,,,0.03,meteohub,2013-04-25 20:42:00,
2013-04-25 16:47:00,61.5,24.4,-100.00,WNW,299,5.0,11.0,24,0.00,,,0.03,meteohub,2013-04-25 20:47:00,
2013-04-25 16:52:00,62.1,25.9,-100.00,North,358,4.0,9.0,25,0.00,,,0.03,meteohub,2013-04-25 20:52:00,
2013-04-25 16:57:00,61.9,26.6,-100.00,WNW,292,0.0,9.0,26,0.00,,,0.03,meteohub,2013-04-25 20:57:00,
2013-04-25 17:02:00,60.6,22.6,-100.00,WNW,299,8.0,9.0,23,0.00,,,0.03,meteohub,2013-04-25 21:02:00,
2013-04-25 17:07:00,60.6,24.6,-100.00,NNW,330,6.0,12.0,25,0.00,,,0.03,meteohub,2013-04-25 21:07:00,
2013-04-25 17:12:00,60.3,25.2,-100.00,NW,319,4.0,12.0,26,0.00,,,0.03,meteohub,2013-04-25 21:12:00,
2013-04-25 17:17:00,61.5,25.3,-100.00,NW,313,0.0,12.0,25,0.00,,,0.03,meteohub,2013-04-25 21:17:00,
2013-04-25 17:22:00,61.0,23.9,-100.00,NW,313,9.0,10.0,24,0.00,,,0.03,meteohub,2013-04-25 21:22:00,
2013-04-25 17:27:00,61.3,25.2,-100.00,NNW,338,6.0,10.0,25,0.00,,,0.03,meteohub,2013-04-25 21:27:00,
2013-04-25 17:32:00,61.0,25.0,-100.00,NW,320,3.0,10.0,25,0.00,,,0.03,meteohub,2013-04-25 21:32:00,
2013-04-25 17:37:00,61.0,25.0,-100.00,NW,323,5.0,10.0,25,0.00,,,0.03,meteohub,2013-04-25 21:37:00,
2013-04-25 17:42:00,61.3,24.3,-100.00,WNW,289,2.0,10.0,24,0.00,,,0.03,meteohub,2013-04-25 21:42:00,
2013-04-25 17:47:00,61.3,24.3,-100.00,WNW,299,3.0,8.0,24,0.00,,,0.03,meteohub,2013-04-25 21:47:00,
2013-04-25 17:52:00,60.6,24.6,-100.00,NW,320,3.0,9.0,25,0.00,,,0.03,meteohub,2013-04-25 21:52:00,
2013-04-25 17:57:00,60.4,23.5,-100.00,North,350,8.0,9.0,24,0.00,,,0.03,meteohub,2013-04-25 21:57:00,
2013-04-25 18:02:00,61.0,25.0,-100.00,NW,316,4.0,11.0,25,0.00,,,0.03,meteohub,2013-04-25 22:02:00,
2013-04-25 18:07:00,60.3,23.4,-100.00,NNW,331,0.0,11.0,24,0.00,,,0.03,meteohub,2013-04-25 22:07:00,
2013-04-25 18:12:00,60.3,22.3,-100.00,WNW,300,4.0,11.0,23,0.00,,,0.03,meteohub,2013-04-25 22:12:00,
2013-04-25 18:17:00,60.6,23.5,-100.00,North,7,4.0,8.0,24,0.00,,,0.03,meteohub,2013-04-25 22:17:00,
2013-04-25 18:22:00,59.5,22.6,-100.00,NW,322,4.0,8.0,24,0.00,,,0.03,meteohub,2013-04-25 22:22:00,
2013-04-25 18:27:00,60.3,23.4,-100.00,NNW,329,5.0,8.0,24,0.00,,,0.03,meteohub,2013-04-25 22:27:00,
2013-04-25 18:32:00,59.0,23.2,-100.00,North,2,4.0,8.0,25,0.00,,,0.03,meteohub,2013-04-25 22:32:00,
2013-04-25 18:37:00,60.6,24.6,-100.00,NNW,344,4.0,10.0,25,0.00,,,0.03,meteohub,2013-04-25 22:37:00,
2013-04-25 18:42:00,59.0,22.3,-100.00,WNW,295,1.0,10.0,24,0.00,,,0.03,meteohub,2013-04-25 22:42:00,
2013-04-25 18:47:00,59.0,22.3,-100.00,NW,306,4.0,9.0,24,0.00,,,0.03,meteohub,2013-04-25 22:47:00,
2013-04-25 18:52:00,59.0,23.2,-100.00,West,264,0.0,10.0,25,0.00,,,0.03,meteohub,2013-04-25 22:52:00,
2013-04-25 18:57:00,59.5,22.6,-100.00,NNW,338,0.0,10.0,24,0.00,,,0.03,meteohub,2013-04-25 22:57:00,
2013-04-25 19:02:00,58.5,21.7,-100.00,NW,322,6.0,10.0,24,0.00,,,0.03,meteohub,2013-04-25 23:02:00,
2013-04-25 19:07:00,59.4,24.4,-100.00,NW,307,6.0,10.0,26,0.00,,,0.03,meteohub,2013-04-25 23:07:00,
2013-04-25 19:12:00,59.0,23.2,-100.00,NW,306,0.0,10.0,25,0.00,,,0.03,meteohub,2013-04-25 23:12:00,
2013-04-25 19:17:00,59.0,23.2,-100.00,NNW,340,0.0,9.0,25,0.00,,,0.03,meteohub,2013-04-25 23:17:00,
2013-04-25 19:22:00,56.3,20.8,-100.00,WNW,302,5.0,7.0,25,0.00,,,0.03,meteohub,2013-04-25 23:22:00,
2013-04-25 19:27:00,56.8,23.2,-100.00,NNW,337,2.0,8.0,27,0.00,,,0.03,meteohub,2013-04-25 23:27:00,
2013-04-25 19:32:00,57.2,23.5,-100.00,NNW,343,4.0,8.0,27,0.00,,,0.03,meteohub,2013-04-25 23:32:00,
2013-04-25 19:37:00,56.8,25.0,-100.00,NW,324,0.0,8.0,29,0.00,,,0.03,meteohub,2013-04-25 23:37:00,
2013-04-25 19:42:00,56.3,22.8,-100.00,NW,324,0.0,8.0,27,0.00,,,0.03,meteohub,2013-04-25 23:42:00,
2013-04-25 19:47:00,55.8,23.2,-100.00,NW,324,0.0,4.0,28,0.00,,,0.03,meteohub,2013-04-25 23:47:00,
2013-04-25 19:52:00,55.8,23.2,-100.00,NW,324,0.0,4.0,28,0.00,,,0.03,meteohub,2013-04-25 23:52:00,
2013-04-25 19:58:00,55.8,23.9,-100.00,NW,324,0.0,0.0,29,0.00,,,0.03,meteohub,2013-04-25 23:58:00,
2013-04-25 20:03:00,54.5,22.1,-100.00,NW,324,0.0,0.0,28,0.00,,,0.03,meteohub,2013-04-26 00:03:00,
2013-04-25 20:08:00,55.0,22.5,-100.00,NW,324,0.0,0.0,28,0.00,,,0.03,meteohub,2013-04-26 00:08:00,
2013-04-25 20:13:00,55.0,23.4,-100.00,NW,312,0.0,5.0,29,0.00,,,0.03,meteohub,2013-04-26 00:13:00,
2013-04-25 20:18:00,54.1,22.6,-100.00,NW,322,0.0,5.0,29,0.00,,,0.03,meteohub,2013-04-26 00:18:00,
2013-04-25 20:23:00,54.0,23.2,-100.00,NW,322,0.0,5.0,30,0.00,,,0.03,meteohub,2013-04-26 00:23:00,
2013-04-25 20:28:00,53.6,22.1,-100.00,NW,322,0.0,5.0,29,0.00,,,0.03,meteohub,2013-04-26 00:28:00,
2013-04-25 20:33:00,54.0,23.2,-100.00,NW,322,0.0,0.0,30,0.00,,,0.03,meteohub,2013-04-26 00:33:00,
2013-04-25 20:38:00,52.5,22.8,-100.00,NW,322,0.0,0.0,31,0.00,,,0.03,meteohub,2013-04-26 00:38:00,
2013-04-25 20:43:00,52.5,22.8,-100.00,NW,322,0.0,0.0,31,0.00,,,0.03,meteohub,2013-04-26 00:43:00,
2013-04-25 20:48:00,53.1,23.2,-100.00,NW,322,0.0,0.0,31,0.00,,,0.03,meteohub,2013-04-26 00:48:00,
2013-04-25 20:53:00,53.1,23.9,-100.00,NW,322,0.0,0.0,32,0.00,,,0.03,meteohub,2013-04-26 00:53:00,
2013-04-25 20:58:00,52.5,24.3,-100.00,NW,322,0.0,0.0,33,0.00,,,0.03,meteohub,2013-04-26 00:58:00,
2013-04-25 21:03:00,52.0,23.7,-100.00,NW,322,0.0,0.0,33,0.00,,,0.03,meteohub,2013-04-26 01:03:00,
2013-04-25 21:09:00,52.9,24.6,-100.00,NW,322,0.0,0.0,33,0.00,,,0.03,meteohub,2013-04-26 01:09:00,
2013-04-25 21:14:00,52.3,24.8,-100.00,NW,322,0.0,0.0,34,0.00,,,0.03,meteohub,2013-04-26 01:14:00,
2013-04-25 21:19:00,51.6,23.4,-100.00,NW,322,0.0,0.0,33,0.00,,,0.03,meteohub,2013-04-26 01:19:00,
2013-04-25 21:24:00,51.3,23.2,-100.00,NW,322,0.0,0.0,33,0.00,,,0.03,meteohub,2013-04-26 01:24:00,
2013-04-25 21:29:00,51.6,23.4,-100.00,NW,322,0.0,0.0,33,0.00,,,0.03,meteohub,2013-04-26 01:29:00,
2013-04-25 21:34:00,50.7,22.6,-100.00,NW,322,0.0,0.0,33,0.00,,,0.03,meteohub,2013-04-26 01:34:00,
2013-04-25 21:39:00,52.0,24.4,-100.00,NW,322,0.0,0.0,34,0.00,,,0.03,meteohub,2013-04-26 01:39:00,
2013-04-25 21:44:00,51.3,24.6,-100.00,NW,322,0.0,0.0,35,0.00,,,0.03,meteohub,2013-04-26 01:44:00,
2013-04-25 21:49:00,51.3,24.6,-100.00,NW,322,0.0,0.0,35,0.00,,,0.03,meteohub,2013-04-26 01:49:00,
2013-04-25 21:54:00,50.2,24.3,-100.00,NW,322,0.0,0.0,36,0.00,,,0.03,meteohub,2013-04-26 01:54:00,
2013-04-25 21:59:00,50.5,24.6,-100.00,NW,322,0.0,0.0,36,0.00,,,0.03,meteohub,2013-04-26 01:59:00,
2013-04-25 22:04:00,50.5,24.6,-100.00,NW,322,0.0,0.0,36,0.00,,,0.03,meteohub,2013-04-26 02:04:00,
2013-04-25 22:09:00,50.7,24.8,-100.00,NW,322,0.0,0.0,36,0.00,,,0.03,meteohub,2013-04-26 02:09:00,
2013-04-25 22:14:00,50.2,25.0,-100.00,NW,322,0.0,0.0,37,0.00,,,0.03,meteohub,2013-04-26 02:14:00,
2013-04-25 22:19:00,50.5,25.2,-100.00,NW,322,0.0,0.0,37,0.00,,,0.03,meteohub,2013-04-26 02:19:00,
2013-04-25 22:25:00,50.0,27.1,-100.00,NW,322,0.0,0.0,41,0.00,,,0.03,meteohub,2013-04-26 02:25:00,
2013-04-25 22:30:00,51.1,34.5,-100.00,NW,322,0.0,0.0,53,0.00,,,0.03,meteohub,2013-04-26 02:30:00,
2013-04-25 22:35:00,50.7,32.7,-100.00,NW,322,0.0,0.0,50,0.00,,,0.03,meteohub,2013-04-26 02:35:00,
2013-04-25 22:40:00,51.1,30.6,-100.00,NW,322,0.0,0.0,45,0.00,,,0.03,meteohub,2013-04-26 02:40:00,
2013-04-25 22:45:00,50.7,28.4,-100.00,NW,322,0.0,0.0,42,0.00,,,0.03,meteohub,2013-04-26 02:45:00,
2013-04-25 22:50:00,50.0,30.6,-100.00,NW,322,0.0,0.0,47,0.00,,,0.03,meteohub,2013-04-26 02:50:00,
2013-04-25 22:55:00,49.6,35.1,-100.00,NW,322,0.0,0.0,57,0.00,,,0.03,meteohub,2013-04-26 02:55:00,
2013-04-25 23:00:00,50.5,36.0,-100.00,NW,322,0.0,0.0,57,0.00,,,0.03,meteohub,2013-04-26 03:00:00,
2013-04-25 23:05:00,49.5,32.0,-100.00,NW,322,0.0,0.0,51,0.00,,,0.03,meteohub,2013-04-26 03:05:00,
2013-04-25 23:10:00,49.3,30.4,-100.00,NW,322,0.0,0.0,48,0.00,,,0.03,meteohub,2013-04-26 03:10:00,
2013-04-25 23:15:00,49.8,28.8,-100.00,NW,322,0.0,0.0,44,0.00,,,0.03,meteohub,2013-04-26 03:15:00,
2013-04-25 23:20:00,49.3,28.2,-100.00,NW,322,0.0,0.0,44,0.00,,,0.03,meteohub,2013-04-26 03:20:00,
2013-04-25 23:25:00,48.6,27.1,-100.00,NW,322,0.0,0.0,43,0.00,,,0.03,meteohub,2013-04-26 03:25:00,
2013-04-25 23:31:00,48.6,27.1,-100.00,NW,322,0.0,0.0,43,0.00,,,0.03,meteohub,2013-04-26 03:31:00,
2013-04-25 23:36:00,48.0,26.6,-100.00,NW,322,0.0,0.0,43,0.00,,,0.03,meteohub,2013-04-26 03:36:00,
2013-04-25 23:41:00,47.7,26.2,-100.00,NW,322,0.0,0.0,43,0.00,,,0.03,meteohub,2013-04-26 03:41:00,
2013-04-25 23:46:00,47.7,26.8,-100.00,NW,322,0.0,0.0,44,0.00,,,0.03,meteohub,2013-04-26 03:46:00,
2013-04-25 23:51:00,48.0,27.7,-100.00,NW,322,0.0,0.0,45,0.00,,,0.03,meteohub,2013-04-26 03:51:00,
2013-04-25 23:56:00,47.3,27.0,-100.00,NW,322,0.0,0.0,45,0.00,,,0.03,meteohub,2013-04-26 03:56:00,